Location: Chippewa Lake
(41.0698°N, 81.9010°W)
Time: 21:37:28
(UTC+00:00)

Gbstr 26 Del rocket - Pass Details

Date: 09 May 2021
Orbit: 493 x 1263 km, 51.8° (Epoch: 17 June)

Event Time Altitude Azimuth Distance (km) Brightness Sun altitude
Rises 05:18:41 0° 304° (WNW) 3,974 7.6 -31.5°
Reaches altitude 10° 05:21:44 10° 308° (NW) 2,909 6.9 -31.5°
Maximum altitude 05:28:31 54° 25° (NNE) 1,118 4.5 -31.5°
Enters shadow 05:29:51 45° 66° (ENE) 1,200 4.5 -31.5°
